Погода в Монтеджардино

Сан-Марино     43°54′32″N   12°29′06″E
темп.,
°C
ветер,
м/с
пор.,
м/с
влажн.,
%
обл.,
%
осадки,
мм/ч
давл.,
гПа
погр.,
м
14 апреля, ср
ср1423:00+6ююв118994 0.8 1024166
02:00+4ю22887 0.9 102497
05:00+4ю23825 0.0 1023144
08:00+6ю137617 0.0 1024216
11:00+9всв346063 0.1 10241251
14:00+11в55485 0.1 10231528
17:00+10вюв5544100 0.0 10221254
20:00+6юв3557100 0.0 1022178
15 апреля, чт
чт1523:00+5ю346293 0.0 102399
02:00+4ю236770 0.0 102296
05:00+4ю2269100 0.0 102166
08:00+6ююв136699 0.0 1022187
11:00+10вюв575395 0.0 10221321
14:00+11всв665058 0.0 10211479
17:00+10в56508 0.0 10201244
20:00+7юв35585 0.0 1020176
16 апреля, пт
пт1623:00+5ю226181 0.0 102171
02:00+4юз1159100 0.0 102131
05:00+4зюз2260100 0.0 102025
08:00+6з1163100 0.0 102082
11:00+10ссв235799 0.0 1019893
14:00+11всв5651100 0.0 10181244
17:00+10всв5656100 0.0 10171037
20:00+8всв2464100 0.0 1016130
17 апреля, сб
сб1723:00+8с2474100 0.0 1016150
02:00+8с1379100 0.0 1014151
05:00+8св2576100 0.0 1013204
08:00+9св4768100 0.0 1013604
11:00+9св7864100 0.1 10131406
14:00+8св5771100 0.2 10121281
17:00+8ссв71082100 0.6 10111222
20:00+6ссв2493100 2.6 1012330
18 апреля, вс
вс1823:00+7св3594100 4.6 1012414
02:00+8св91294100 8.3 10111178
05:00+7св81193100 3.4 10111065
08:00+8св81193100 5.4 10121140
11:00+8св71093100 1.4 10141117
14:00+8св4791100 3.1 1014799
17:00+8св4791100 0.9 1014628
20:00+8св3589100 1.5 1015227